Weather in Guga

Russia / Khabarovsk Krai     52°41′53″N   137°32′12″E
temp.,
°C
wind,
m/s
gust,
m/s
humid.,
%
clouds,
%
prec.,
mm/h
press.,
hPa
HPBL,
m
27 february, sat
sat2701:00−21ssw01950 0.0 102920
04:00−22ssw11960 0.0 102920
07:00−22sw119930 0.0 102820
10:00−17ssw129565 0.0 1028184
13:00−12sw2483100 0.0 1026501
16:00−11ssw1383100 0.0 1023449
19:00−15s1193100 0.0 102221
22:00−15se1197100 0.3 101852
28 february, sun
sun2801:00−14e1197100 1.9 101461
04:00−15nnw1197100 2.8 101122
07:00−16n1197100 0.2 101220
10:00−13w1191100 0.3 1012253
13:00−11wnw2481100 0.1 1013855
16:00−11wnw4778100 0.2 10141277
19:00−17n359489 0.1 1017182
22:00−19nnw229792 0.1 102054
1 march, mon
mon101:00−22w1197100 0.1 102120
04:00−21wnw1199100 0.1 102220
07:00−21w119999 0.1 102321
10:00−19sw129497 0.1 1024253
13:00−17wsw3568100 0.0 10231056
16:00−17w477587 0.1 10221280
19:00−21wnw2787100 0.1 1024284
22:00−26wsw228295 0.1 102524
2 march, tue
tue201:00−29wsw128542 0.0 102621
04:00−31sw128631 0.0 102621
07:00−32sw11820 0.0 102819
10:00−26sw277811 0.0 1027336
13:00−21wsw58674 0.0 10261244
16:00−19wsw597119 0.0 10261547
19:00−23wsw3117870 0.0 1027297
22:00−27wsw228137 0.0 102828
3 march, wed
wed301:00−29ssw12880 0.0 102719
04:00−31sw11860 0.0 102719
07:00−31sw11840 0.0 102619
10:00−24sw12810 0.0 1024186
13:00−18ssw25780 0.0 1020571
16:00−16sw268020 0.0 1017660
19:00−19ssw129297 0.0 101520
22:00−21s119698 0.0 101320